Location: Unspecified
(0.0000°N, 0.0000°E)
Time: 00:06:46
(UTC+00:00)

Hubble Space Telescope - Pass Details

Date: 19 February 2020
Orbit: 536 x 540 km, 28.5° (Epoch: 26 February)

Event Time Altitude Azimuth Distance (km) Brightness Sun altitude
Exits shadow 03:52:17 15° 114° (ESE) 1,493 3.7 -34.6°
Drops below altitude 10° 03:53:01 10° 115° (ESE) 1,780 4.2 -34.4°
Sets 03:55:17 0° 117° (ESE) 2,671 5.3 -33.9°
